Ivano Frankovsk current weather conditions

sailwx.info

Wind from 280 at 13 knots gusting 23

Air temperature 4.0° C
Visibility: greater than 5.4 NM
Dewpoint -6.0° C

Last reported at 2020-Jan-22 13:30 UTC.
Time now 2020-Jan-22 15:14 UTC

Location: N 48°53' E 024°41'.
View on Google Maps.

See reports from other nearby stations

  
Tides and Currents Weather Stations Pressure Air Temp Water Temp Dewpoint Dewpoint Depression Visibility Wind Speed Wind Dir Waves Ship Positions
date/time (UTC)wind fromknots sea level pressurealtimeterstation pressurevisibilityair tempwater tempwave heightnotes
2020-Jan-22 13:30 280 13 gusting 23 5.4 4.0
2020-Jan-22 13:00 280 15 gusting 33 5.4 6.0
2020-Jan-22 12:33 270 21 gusting 31 5.4 6.0
2020-Jan-22 12:30 270 19 5.4 6.0
2020-Jan-22 12:00 270 23 5.4 7.0
2020-Jan-22 11:30 270 23 gusting 34 5.4 8.0
2020-Jan-22 11:00 270 19 gusting 33 5.4 8.0
2020-Jan-22 10:30 270 15 gusting 27 5.4 8.0
2020-Jan-22 10:00 290 13 5.4 8.0
2020-Jan-22 09:30 280 15 5.4 9.0
2020-Jan-22 09:24 280 17 gusting 27 5.4 8.0
2020-Jan-22 09:00 280 15 5.4 9.0
2020-Jan-22 08:30 270 13 5.4 9.0
2020-Jan-22 08:00 270 7 5.4 9.0
2020-Jan-22 07:30 250 11 5.4 7.0
2020-Jan-22 07:00 260 9 5.4 4.0
2020-Jan-22 06:30 240 7 5.4 2.0
2020-Jan-22 06:00 280 5 5.4 2.0
2020-Jan-22 05:30 270 5 5.4 3.0
2020-Jan-22 05:00 270 5 5.4 3.0
2020-Jan-22 04:30 5.4 3.0
2020-Jan-22 04:00 270 5 5.4 3.0
2020-Jan-22 03:30 250 5 5.4 3.0
2020-Jan-22 03:00 5.4-0.0
2020-Jan-21 20:00 280 9 5.4 5.0
2020-Jan-21 19:30 280 7 5.4 5.0
2020-Jan-21 19:00 280 9 5.4 5.0
2020-Jan-21 18:30 280 11 5.4 5.0
2020-Jan-21 18:00 270 11 5.4 5.0
2020-Jan-21 17:30 270 11 5.4 5.0
2020-Jan-21 17:00 270 9 5.4 5.0
2020-Jan-21 16:30 270 13 5.4 5.0
2020-Jan-21 16:00 260 13 5.4 5.0
2020-Jan-21 15:30 270 9 5.4 5.0
2020-Jan-21 15:00 270 9 5.4 5.0
2020-Jan-21 14:30 280 13 5.4 5.0
2020-Jan-21 14:00 270 15 5.4 6.0
2020-Jan-21 13:30 270 11 5.4 6.0
2020-Jan-21 13:00 270 13 5.4 8.0
2020-Jan-21 12:30 280 11 5.4 8.0
2020-Jan-21 12:00 290 11 5.4 8.0
2020-Jan-21 11:30 290 9 5.4 8.0
2020-Jan-21 11:00 290 7 5.4 7.0
2020-Jan-21 10:30 290 7 5.4 6.0
2020-Jan-21 10:00 290 3 5.4 5.0
2020-Jan-21 09:30 310 3 5.4 4.0
2020-Jan-21 09:00 310 3 5.4 3.0
2020-Jan-21 08:30 300 3 5.4 2.0
2020-Jan-21 08:00 290 3 5.4 1.0
2020-Jan-21 07:30 260 3 5.4-0.0
2020-Jan-21 07:00 290 3 5.4-2.0
2020-Jan-21 06:30 5.4-4.0
2020-Jan-21 06:00 300 1 5.4-3.0
2020-Jan-21 05:30 5.4-4.0
2020-Jan-21 05:00 270 3 5.4-3.0
2020-Jan-21 04:30 230 5 5.4-2.0
2020-Jan-21 04:00 230 5 5.4-2.0
2020-Jan-21 03:30 230 5 5.4-1.0
2020-Jan-21 03:00 280 5 5.4-0.0
2020-Jan-20 20:00 270 5 5.4 1.0
2020-Jan-20 19:30 280 3 5.4 1.0
2020-Jan-20 19:00 280 5 5.4 1.0
2020-Jan-20 18:30 290 3 5.4 1.0
2020-Jan-20 18:00 290 5 5.4 1.0
2020-Jan-20 17:30 280 5 5.4 1.0
2020-Jan-20 17:24 290 5 5.4 1.0
2020-Jan-20 17:00 290 3 4.3 1.0
2020-Jan-20 16:30 290 5 3.8 1.0
2020-Jan-20 16:00 290 5 4.3 1.0
2020-Jan-20 15:53 290 5 4.9 1.0
2020-Jan-20 15:30 280 5 4.9 1.0
2020-Jan-20 15:00 280 7 5.4 1.0